TimeEDT,TemperatureF,Dew PointF,Humidity,Sea Level PressureIn,VisibilityMPH,Wind Direction,Wind SpeedMPH,Gust SpeedMPH,PrecipitationIn,Events,Conditions,WindDirDegrees,DateUTC
12:50 AM,75.2,73.4,94,29.96,10.0,Calm,Calm,-,N/A,Rain,Light Rain,0,2012-10-07 04:50:00
12:55 AM,74.8,73.9,97,29.96,10.0,Calm,Calm,-,0.00,Rain,Light Rain,0,2012-10-07 04:55:00
1:00 AM,75.2,73.4,94,29.96,6.0,Calm,Calm,-,N/A,,Clear,0,2012-10-07 05:00:00
1:55 AM,73.2,73.0,99,29.96,10.0,Calm,Calm,-,0.00,,Scattered Clouds,0,2012-10-07 05:55:00
2:55 AM,75.4,75.0,99,29.95,10.0,Calm,Calm,-,N/A,,Clear,0,2012-10-07 06:55:00
3:55 AM,73.2,72.9,99,29.94,10.0,Calm,Calm,-,N/A,,Clear,0,2012-10-07 07:55:00
4:55 AM,73.8,73.6,99,29.94,10.0,WNW,5.8,-,N/A,,Clear,290,2012-10-07 08:55:00
5:42 AM,73.4,73.4,100,29.94,8.0,NW,4.6,-,N/A,,Mostly Cloudy,320,2012-10-07 09:42:00
5:44 AM,73.4,73.4,100,29.94,9.0,NW,4.6,-,N/A,,Mostly Cloudy,310,2012-10-07 09:44:00
5:55 AM,74.1,73.8,99,29.95,10.0,NW,4.6,-,N/A,,Mostly Cloudy,310,2012-10-07 09:55:00
5:57 AM,73.4,73.4,100,29.95,10.0,NW,4.6,-,N/A,,Scattered Clouds,320,2012-10-07 09:57:00
6:13 AM,73.4,73.4,100,29.96,10.0,NW,3.5,-,N/A,,Mostly Cloudy,310,2012-10-07 10:13:00
6:15 AM,73.4,73.4,100,29.96,10.0,NW,3.5,-,N/A,,Mostly Cloudy,310,2012-10-07 10:15:00
6:55 AM,73.9,73.8,99,29.96,4.0,NNW,3.5,-,N/A,,Overcast,330,2012-10-07 10:55:00
7:21 AM,73.4,73.4,100,29.96,2.5,NNE,3.5,-,N/A,,Mostly Cloudy,20,2012-10-07 11:21:00
7:24 AM,73.4,73.4,100,29.96,1.8,NNE,3.5,-,N/A,,Mostly Cloudy,30,2012-10-07 11:24:00
7:28 AM,73.4,73.4,100,29.96,1.5,NNE,3.5,-,N/A,,Scattered Clouds,30,2012-10-07 11:28:00
7:32 AM,73.4,73.4,100,29.96,1.0,NNE,3.5,-,N/A,,Mist,20,2012-10-07 11:32:00
7:34 AM,73.4,73.4,100,29.96,1.0,NNE,3.5,-,N/A,,Mist,20,2012-10-07 11:34:00
7:36 AM,73.4,73.4,100,29.96,0.8,NNE,3.5,-,N/A,,Mist,20,2012-10-07 11:36:00
7:55 AM,73.8,73.4,99,29.97,0.5,Calm,Calm,-,N/A,Fog,Fog,0,2012-10-07 11:55:00
8:00 AM,73.4,73.4,100,29.97,1.0,Calm,Calm,-,N/A,,Mist,0,2012-10-07 12:00:00
8:02 AM,73.4,73.4,100,29.97,1.2,Calm,Calm,-,N/A,,Scattered Clouds,0,2012-10-07 12:02:00
8:05 AM,75.2,73.4,94,29.97,2.0,Calm,Calm,-,N/A,,Scattered Clouds,0,2012-10-07 12:05:00
8:07 AM,75.2,73.4,94,29.97,3.0,Calm,Calm,-,N/A,,Scattered Clouds,0,2012-10-07 12:07:00
8:55 AM,76.6,76.5,99,29.98,10.0,NNE,3.5,-,N/A,,Clear,30,2012-10-07 12:55:00
9:55 AM,79.3,76.3,90,29.99,10.0,NE,5.8,-,0.01,,Partly Cloudy,40,2012-10-07 13:55:00
10:41 AM,80.6,75.2,84,30.01,10.0,Variable,3.5,-,N/A,,Mostly Cloudy,0,2012-10-07 14:41:00
10:55 AM,80.2,75.4,85,30.00,10.0,NE,5.8,-,N/A,,Mostly Cloudy,50,2012-10-07 14:55:00
11:20 AM,80.6,75.2,84,30.00,10.0,ENE,8.1,-,N/A,,Scattered Clouds,60,2012-10-07 15:20:00
11:27 AM,80.6,75.2,84,30.00,10.0,Variable,4.6,-,N/A,,Mostly Cloudy,0,2012-10-07 15:27:00
11:34 AM,82.4,77.0,84,30.00,10.0,NE,8.1,-,N/A,,Scattered Clouds,50,2012-10-07 15:34:00
11:44 AM,82.4,75.2,79,30.00,10.0,NE,6.9,-,N/A,,Mostly Cloudy,50,2012-10-07 15:44:00
11:55 AM,83.8,75.0,75,30.00,10.0,Variable,5.8,-,N/A,,Scattered Clouds,0,2012-10-07 15:55:00
12:16 PM,82.4,73.4,74,30.00,10.0,Variable,6.9,-,N/A,,Mostly Cloudy,0,2012-10-07 16:16:00
12:26 PM,84.2,75.2,74,30.00,10.0,ENE,6.9,-,N/A,,Scattered Clouds,70,2012-10-07 16:26:00
12:28 PM,86.0,75.2,70,30.00,10.0,ENE,5.8,-,N/A,,Mostly Cloudy,60,2012-10-07 16:28:00
12:30 PM,86.0,75.2,70,30.00,10.0,ENE,5.8,-,N/A,,Scattered Clouds,70,2012-10-07 16:30:00
12:55 PM,84.4,73.9,71,29.99,10.0,Variable,3.5,-,N/A,,Scattered Clouds,0,2012-10-07 16:55:00
1:55 PM,86.9,73.2,64,29.99,10.0,ESE,5.8,-,N/A,,Scattered Clouds,110,2012-10-07 17:55:00
2:55 PM,85.1,74.1,70,29.96,10.0,East,8.1,-,N/A,,Scattered Clouds,90,2012-10-07 18:55:00
3:33 PM,86.0,75.2,70,29.95,10.0,East,9.2,-,N/A,,Mostly Cloudy,100,2012-10-07 19:33:00
3:36 PM,86.0,75.2,70,29.95,10.0,East,8.1,-,N/A,,Scattered Clouds,80,2012-10-07 19:36:00
3:45 PM,84.2,73.4,70,29.95,10.0,ENE,8.1,-,N/A,,Mostly Cloudy,70,2012-10-07 19:45:00
3:55 PM,83.8,73.6,71,29.95,10.0,East,8.1,-,N/A,,Mostly Cloudy,90,2012-10-07 19:55:00
4:55 PM,85.8,72.5,64,29.95,10.0,East,6.9,-,N/A,,Clear,100,2012-10-07 20:55:00
5:55 PM,81.9,72.5,73,29.95,10.0,ESE,5.8,-,N/A,,Clear,110,2012-10-07 21:55:00
6:55 PM,79.3,72.9,80,29.96,10.0,Calm,Calm,-,N/A,,Clear,0,2012-10-07 22:55:00
7:55 PM,76.1,73.2,91,29.98,10.0,Calm,Calm,-,N/A,,Clear,0,2012-10-07 23:55:00
8:55 PM,77.0,73.8,90,29.99,10.0,SE,3.5,-,N/A,,Clear,130,2012-10-08 00:55:00
9:55 PM,77.0,73.8,90,30.00,10.0,Calm,Calm,-,N/A,,Clear,0,2012-10-08 01:55:00
10:55 PM,76.8,71.8,84,30.00,10.0,South,5.8,-,N/A,,Clear,170,2012-10-08 02:55:00
11:55 PM,74.1,71.1,90,30.00,8.0,Calm,Calm,-,N/A,,Clear,0,2012-10-08 03:55:00